Погода в Солнечном

Россия / Курская область     52°01′52″N   36°20′56″E
темп.,
°C
ветер,
м/с
пор.,
м/с
влажн.,
%
обл.,
%
осадки,
мм/ч
давл.,
гПа
погр.,
м
22 января, сб
сб2200:00−4ююз71493100 0.4 1001606
03:00−4ююз7139499 1.3 1002627
06:00−4ююз61195100 0.3 1003528
09:00−5ююз499584 0.8 1005429
12:00−4ююз479594 0.1 1007431
15:00−4юз4791100 0.2 1008577
18:00−5ю369698 0.1 1010151
21:00−7ю369796 0.1 1012114
23 января, вс
вс2300:00−12ю2210094 0.1 101514
03:00−11ююв229870 0.1 101621
06:00−17юв11100100 0.0 10199
09:00−12юв1210097 0.1 102251
12:00−7в239494 0.1 1024316
15:00−7всв359596 0.1 1025277
18:00−14св369862 0.0 102974
21:00−14св399764 0.0 1030128
24 января, пн
пн2400:00−13св4129680 0.0 1031178
03:00−12ссв6159492 0.0 1031260
06:00−11ссв6169296 0.0 1030333
09:00−9св71493100 0.1 1030401
12:00−7св61393100 0.2 1030444
15:00−7св61293100 0.2 1029426
18:00−9св5119586 0.0 1030245
21:00−12св3897100 0.0 1030140
25 января, вт
вт2500:00−13св379790 0.0 102999
03:00−15св249972 0.0 102862
06:00−15св3598100 0.0 102790
09:00−16всв2599100 0.0 102660
12:00−10в2393100 0.1 1024169
15:00−8в1193100 0.8 1022194
18:00−8вюв1197100 0.4 102129
21:00−10ююв119872 0.7 102020
26 января, ср
ср2600:00−12ю229799 0.1 101928
03:00−9ююз2596100 0.5 1018135
06:00−9ю2596100 0.4 1017216
09:00−9ю3696100 0.9 1017263
12:00−8ююз3593100 0.4 1017353
15:00−7ююз359393 0.8 1017411
18:00−12ю229881 0.1 101713
21:00−13ю2299100 0.1 101814